Time,TemperatureF,DewpointF,PressureIn,WindDirection,WindDirectionDegrees,WindSpeedMPH,WindSpeedGustMPH,Humidity,HourlyPrecipIn,Conditions,Clouds,dailyrainin,SoftwareType,DateUTC
2013-02-05 00:03:00,64.0,54.0,30.10,WSW,238,3.0,3.0,69,0.00,,,0.00,,2013-02-05 05:03:00,
2013-02-05 00:12:00,64.0,54.0,30.10,WSW,238,3.0,3.0,69,0.00,,,0.00,,2013-02-05 05:12:00,
2013-02-05 00:22:00,63.0,54.0,30.10,WNW,284,2.0,3.0,73,0.00,,,0.00,,2013-02-05 05:22:00,
2013-02-05 00:32:00,62.0,54.0,30.10,NW,309,2.0,5.0,75,0.00,,,0.00,,2013-02-05 05:32:00,
2013-02-05 00:42:00,62.0,54.0,30.10,NW,309,2.0,5.0,75,0.00,,,0.00,,2013-02-05 05:42:00,
2013-02-05 00:52:00,61.0,54.0,30.09,West,277,2.0,4.0,77,0.00,,,0.00,,2013-02-05 05:52:00,
2013-02-05 01:02:00,61.0,54.0,30.09,WNW,298,2.0,4.0,78,0.00,,,0.00,,2013-02-05 06:02:00,
2013-02-05 01:11:00,61.0,54.0,30.09,WNW,298,2.0,4.0,78,0.00,,,0.00,,2013-02-05 06:11:00,
2013-02-05 01:22:00,60.0,53.0,30.10,NW,308,3.0,5.0,79,0.00,,,0.00,,2013-02-05 06:22:00,
2013-02-05 01:32:00,60.0,54.0,30.09,NW,326,3.0,5.0,80,0.00,,,0.00,,2013-02-05 06:32:00,
2013-02-05 01:42:00,60.0,54.0,30.09,NW,326,3.0,5.0,80,0.00,,,0.00,,2013-02-05 06:42:00,
2013-02-05 01:52:00,60.0,54.0,30.09,NW,318,2.0,5.0,80,0.00,,,0.00,,2013-02-05 06:52:00,
2013-02-05 02:01:00,60.0,54.0,30.09,NW,326,3.0,5.0,80,0.00,,,0.00,,2013-02-05 07:01:00,
2013-02-05 02:11:00,60.0,54.0,30.09,NW,326,3.0,5.0,80,0.00,,,0.00,,2013-02-05 07:11:00,
2013-02-05 02:22:00,60.0,54.0,30.09,NW,308,2.0,5.0,80,0.00,,,0.00,,2013-02-05 07:22:00,
2013-02-05 02:32:00,60.0,54.0,30.09,NW,326,2.0,5.0,80,0.00,,,0.00,,2013-02-05 07:32:00,
2013-02-05 02:42:00,60.0,54.0,30.09,NW,326,2.0,5.0,80,0.00,,,0.00,,2013-02-05 07:42:00,
2013-02-05 02:52:00,60.0,53.0,30.08,NW,315,2.0,5.0,79,0.00,,,0.00,,2013-02-05 07:52:00,
2013-02-05 03:01:00,59.0,52.0,30.08,NW,305,2.0,4.0,78,0.00,,,0.00,,2013-02-05 08:01:00,
2013-02-05 03:11:00,59.0,52.0,30.08,NW,305,2.0,4.0,78,0.00,,,0.00,,2013-02-05 08:11:00,
2013-02-05 03:22:00,60.0,52.0,30.07,NW,307,2.0,5.0,76,0.00,,,0.00,,2013-02-05 08:22:00,
2013-02-05 03:32:00,59.0,52.0,30.07,WNW,302,2.0,4.0,77,0.00,,,0.00,,2013-02-05 08:32:00,
2013-02-05 03:42:00,59.0,52.0,30.07,WNW,302,2.0,4.0,77,0.00,,,0.00,,2013-02-05 08:42:00,
2013-02-05 03:52:00,59.0,52.0,30.07,WNW,286,1.0,3.0,78,0.00,,,0.00,,2013-02-05 08:52:00,
2013-02-05 04:02:00,59.0,52.0,30.07,NW,309,2.0,4.0,77,0.00,,,0.00,,2013-02-05 09:02:00,
2013-02-05 04:12:00,59.0,52.0,30.07,NW,309,2.0,4.0,77,0.00,,,0.00,,2013-02-05 09:12:00,
2013-02-05 04:22:00,59.0,52.0,30.07,NW,309,2.0,4.0,77,0.00,,,0.00,,2013-02-05 09:22:00,
2013-02-05 04:32:00,59.0,52.0,30.07,WNW,296,1.0,3.0,77,0.00,,,0.00,,2013-02-05 09:32:00,
2013-02-05 04:42:00,59.0,52.0,30.07,WNW,296,1.0,3.0,77,0.00,,,0.00,,2013-02-05 09:42:00,
2013-02-05 04:52:00,59.0,52.0,30.07,WNW,296,1.0,3.0,77,0.00,,,0.00,,2013-02-05 09:52:00,
2013-02-05 05:02:00,59.0,52.0,30.07,NW,320,2.0,5.0,78,0.00,,,0.00,,2013-02-05 10:02:00,
2013-02-05 05:11:00,59.0,52.0,30.07,NW,320,2.0,5.0,78,0.00,,,0.00,,2013-02-05 10:11:00,
2013-02-05 05:21:00,59.0,52.0,30.06,WNW,297,2.0,3.0,78,0.00,,,0.00,,2013-02-05 10:21:00,
2013-02-05 05:32:00,59.0,52.0,30.06,NW,314,2.0,5.0,78,0.00,,,0.00,,2013-02-05 10:32:00,
2013-02-05 05:42:00,59.0,52.0,30.06,NW,314,2.0,5.0,78,0.00,,,0.00,,2013-02-05 10:42:00,
2013-02-05 05:52:00,59.0,52.0,30.06,WNW,301,1.0,3.0,79,0.00,,,0.00,,2013-02-05 10:52:00,
2013-02-05 06:01:00,58.0,52.0,30.07,NW,312,3.0,4.0,79,0.00,,,0.00,,2013-02-05 11:01:00,
2013-02-05 06:11:00,58.0,52.0,30.07,NW,312,3.0,4.0,79,0.00,,,0.00,,2013-02-05 11:11:00,
2013-02-05 06:22:00,58.0,52.0,30.07,NW,305,3.0,5.0,79,0.00,,,0.00,,2013-02-05 11:22:00,
2013-02-05 06:32:00,58.0,52.0,30.08,WNW,296,1.0,3.0,80,0.00,,,0.00,,2013-02-05 11:32:00,
2013-02-05 06:42:00,58.0,52.0,30.08,WNW,296,1.0,3.0,80,0.00,,,0.00,,2013-02-05 11:42:00,
2013-02-05 06:52:00,58.0,52.0,30.08,NW,314,2.0,5.0,80,0.00,,,0.00,,2013-02-05 11:52:00,
2013-02-05 07:02:00,58.0,52.0,30.08,NW,304,3.0,4.0,80,0.00,,,0.00,,2013-02-05 12:02:00,
2013-02-05 07:12:00,58.0,52.0,30.08,NW,304,3.0,4.0,80,0.00,,,0.00,,2013-02-05 12:12:00,
2013-02-05 07:22:00,58.0,52.0,30.09,NW,314,2.0,5.0,80,0.00,,,0.00,,2013-02-05 12:22:00,
2013-02-05 07:32:00,58.0,52.0,30.09,NNW,330,3.0,5.0,79,0.00,,,0.00,,2013-02-05 12:32:00,
2013-02-05 07:42:00,58.0,52.0,30.09,NNW,330,3.0,5.0,79,0.00,,,0.00,,2013-02-05 12:42:00,
2013-02-05 07:52:00,58.0,51.0,30.09,NW,314,3.0,5.0,78,0.00,,,0.00,,2013-02-05 12:52:00,
2013-02-05 08:02:00,59.0,51.0,30.09,NW,317,3.0,5.0,76,0.00,,,0.00,,2013-02-05 13:02:00,
2013-02-05 08:12:00,59.0,51.0,30.09,NW,317,3.0,5.0,76,0.00,,,0.00,,2013-02-05 13:12:00,
2013-02-05 08:22:00,60.0,51.0,30.10,NW,326,3.0,5.0,73,0.00,,,0.00,,2013-02-05 13:22:00,
2013-02-05 08:32:00,61.0,52.0,30.10,NW,324,2.0,4.0,73,0.00,,,0.00,,2013-02-05 13:32:00,
2013-02-05 08:42:00,61.0,52.0,30.10,NW,324,2.0,4.0,73,0.00,,,0.00,,2013-02-05 13:42:00,
2013-02-05 08:52:00,63.0,54.0,30.10,WNW,294,1.0,3.0,72,0.00,,,0.00,,2013-02-05 13:52:00,
2013-02-05 09:01:00,65.0,55.0,30.10,WSW,249,0.0,1.0,71,0.00,,,0.00,,2013-02-05 14:01:00,
2013-02-05 09:12:00,65.0,55.0,30.10,WSW,249,0.0,1.0,71,0.00,,,0.00,,2013-02-05 14:12:00,
2013-02-05 09:22:00,68.0,57.0,30.10,WSW,249,0.0,0.0,69,0.00,,,0.00,,2013-02-05 14:22:00,
2013-02-05 09:32:00,70.0,57.0,30.11,SSW,210,0.0,2.0,63,0.00,,,0.00,,2013-02-05 14:32:00,
2013-02-05 09:42:00,70.0,57.0,30.11,SSW,210,0.0,2.0,63,0.00,,,0.00,,2013-02-05 14:42:00,
2013-02-05 09:52:00,72.0,57.0,30.11,SW,233,0.0,2.0,59,0.00,,,0.00,,2013-02-05 14:52:00,
2013-02-05 10:02:00,73.0,58.0,30.11,WSW,238,0.0,1.0,60,0.00,,,0.00,,2013-02-05 15:02:00,
2013-02-05 10:11:00,73.0,58.0,30.11,WSW,238,0.0,1.0,60,0.00,,,0.00,,2013-02-05 15:11:00,
2013-02-05 10:22:00,73.0,58.0,30.11,SSW,205,1.0,3.0,59,0.00,,,0.00,,2013-02-05 15:22:00,
2013-02-05 10:32:00,73.0,56.0,30.11,SSE,155,5.0,9.0,56,0.00,,,0.00,,2013-02-05 15:32:00,
2013-02-05 10:42:00,73.0,56.0,30.11,SSE,155,5.0,9.0,56,0.00,,,0.00,,2013-02-05 15:42:00,
2013-02-05 10:52:00,74.0,56.0,30.11,South,169,5.0,7.0,53,0.00,,,0.00,,2013-02-05 15:52:00,
2013-02-05 11:01:00,74.0,55.0,30.12,South,174,4.0,12.0,52,0.00,,,0.00,,2013-02-05 16:01:00,
2013-02-05 11:12:00,74.0,55.0,30.12,South,174,4.0,12.0,52,0.00,,,0.00,,2013-02-05 16:12:00,
2013-02-05 11:22:00,74.0,55.0,30.12,SSW,195,5.0,9.0,51,0.00,,,0.00,,2013-02-05 16:22:00,
2013-02-05 11:32:00,75.0,56.0,30.11,SSE,158,4.0,8.0,52,0.00,,,0.00,,2013-02-05 16:32:00,
2013-02-05 11:42:00,75.0,56.0,30.11,SSE,158,4.0,8.0,52,0.00,,,0.00,,2013-02-05 16:42:00,
2013-02-05 11:52:00,75.0,57.0,30.11,South,184,6.0,10.0,53,0.00,,,0.00,,2013-02-05 16:52:00,
2013-02-05 12:01:00,75.0,56.0,30.11,SE,139,4.0,8.0,52,0.00,,,0.00,,2013-02-05 17:01:00,
2013-02-05 12:12:00,75.0,56.0,30.11,SE,139,4.0,8.0,52,0.00,,,0.00,,2013-02-05 17:12:00,
2013-02-05 12:22:00,75.0,57.0,30.11,SSW,195,4.0,9.0,54,0.00,,,0.00,,2013-02-05 17:22:00,
2013-02-05 12:32:00,75.0,58.0,30.10,SSE,167,6.0,10.0,56,0.00,,,0.00,,2013-02-05 17:32:00,
2013-02-05 12:42:00,75.0,58.0,30.10,SSE,167,6.0,10.0,56,0.00,,,0.00,,2013-02-05 17:42:00,
2013-02-05 12:52:00,76.0,58.0,30.10,South,169,5.0,10.0,54,0.00,,,0.00,,2013-02-05 17:52:00,
2013-02-05 13:02:00,75.0,59.0,30.09,South,172,6.0,-999.0,57,-99.99,,,-99.99,,2013-02-05 18:02:00,
2013-02-05 13:11:00,75.0,59.0,30.09,South,172,6.0,-999.0,57,-99.99,,,-99.99,,2013-02-05 18:11:00,
2013-02-05 13:22:00,75.0,59.0,30.08,SSE,150,6.0,11.0,57,0.00,,,0.00,,2013-02-05 18:22:00,
2013-02-05 13:32:00,75.0,60.0,30.08,SE,143,7.0,10.0,59,0.00,,,0.00,,2013-02-05 18:32:00,
2013-02-05 13:42:00,75.0,60.0,30.08,SE,143,7.0,10.0,59,0.00,,,0.00,,2013-02-05 18:42:00,
2013-02-05 13:52:00,75.0,61.0,30.07,SSE,148,7.0,11.0,61,0.00,,,0.00,,2013-02-05 18:52:00,
2013-02-05 14:02:00,75.0,60.0,30.06,SE,141,7.0,11.0,60,0.00,,,0.00,,2013-02-05 19:02:00,
2013-02-05 14:11:00,75.0,60.0,30.06,SE,141,7.0,11.0,60,0.00,,,0.00,,2013-02-05 19:11:00,
2013-02-05 14:22:00,75.0,61.0,30.06,SE,143,6.0,10.0,61,0.00,,,0.00,,2013-02-05 19:22:00,
2013-02-05 14:32:00,75.0,61.0,30.06,SSE,160,6.0,11.0,61,0.00,,,0.00,,2013-02-05 19:32:00,
2013-02-05 14:42:00,75.0,61.0,30.06,SSE,160,6.0,11.0,61,0.00,,,0.00,,2013-02-05 19:42:00,
2013-02-05 14:52:00,75.0,60.0,30.06,SSE,155,8.0,12.0,59,0.00,,,0.00,,2013-02-05 19:52:00,
2013-02-05 15:02:00,76.0,61.0,30.05,ESE,121,7.0,10.0,60,0.00,,,0.00,,2013-02-05 20:02:00,
2013-02-05 15:11:00,76.0,61.0,30.05,ESE,121,7.0,10.0,60,0.00,,,0.00,,2013-02-05 20:11:00,
2013-02-05 15:21:00,75.0,61.0,30.05,SSE,153,7.0,10.0,62,0.00,,,0.00,,2013-02-05 20:21:00,
2013-02-05 15:32:00,75.0,61.0,30.05,SE,141,6.0,9.0,61,0.00,,,0.00,,2013-02-05 20:32:00,
2013-02-05 15:42:00,75.0,61.0,30.05,SE,141,6.0,9.0,61,0.00,,,0.00,,2013-02-05 20:42:00,
2013-02-05 15:52:00,75.0,61.0,30.04,SE,128,5.0,11.0,62,0.00,,,0.00,,2013-02-05 20:52:00,
2013-02-05 16:02:00,75.0,62.0,30.04,SE,134,7.0,12.0,63,0.00,,,0.00,,2013-02-05 21:02:00,
2013-02-05 16:11:00,75.0,62.0,30.04,SE,134,7.0,12.0,63,0.00,,,0.00,,2013-02-05 21:11:00,
2013-02-05 16:22:00,74.0,61.0,30.04,SE,140,7.0,10.0,65,0.00,,,0.00,,2013-02-05 21:22:00,
2013-02-05 16:32:00,74.0,61.0,30.04,SE,139,7.0,11.0,63,0.00,,,0.00,,2013-02-05 21:32:00,
2013-02-05 16:42:00,74.0,61.0,30.04,SE,139,7.0,11.0,63,0.00,,,0.00,,2013-02-05 21:42:00,
2013-02-05 16:52:00,75.0,63.0,30.04,SSE,148,7.0,12.0,66,0.00,,,0.00,,2013-02-05 21:52:00,
2013-02-05 17:02:00,74.0,61.0,30.04,SSE,160,8.0,13.0,64,0.00,,,0.00,,2013-02-05 22:02:00,
2013-02-05 17:12:00,74.0,61.0,30.04,SSE,160,8.0,13.0,64,0.00,,,0.00,,2013-02-05 22:12:00,
2013-02-05 17:22:00,74.0,61.0,30.04,SSE,152,6.0,10.0,65,0.00,,,0.00,,2013-02-05 22:22:00,
2013-02-05 17:32:00,74.0,61.0,30.04,SE,146,7.0,11.0,63,0.00,,,0.00,,2013-02-05 22:32:00,
2013-02-05 17:42:00,74.0,61.0,30.04,SE,146,7.0,11.0,63,0.00,,,0.00,,2013-02-05 22:42:00,
2013-02-05 17:52:00,74.0,62.0,30.04,SE,146,8.0,12.0,66,0.00,,,0.00,,2013-02-05 22:52:00,
2013-02-05 18:02:00,73.0,62.0,30.03,SE,135,8.0,12.0,68,0.00,,,0.00,,2013-02-05 23:02:00,
2013-02-05 18:11:00,73.0,62.0,30.03,SE,135,8.0,12.0,68,0.00,,,0.00,,2013-02-05 23:11:00,
2013-02-05 18:22:00,72.0,61.0,30.03,SSE,148,6.0,13.0,68,0.00,,,0.00,,2013-02-05 23:22:00,
2013-02-05 18:32:00,72.0,62.0,30.03,SSE,155,6.0,11.0,70,0.00,,,0.00,,2013-02-05 23:32:00,
2013-02-05 18:42:00,72.0,62.0,30.03,SSE,155,6.0,11.0,70,0.00,,,0.00,,2013-02-05 23:42:00,
2013-02-05 18:52:00,72.0,62.0,30.03,SE,141,6.0,10.0,72,0.00,,,0.00,,2013-02-05 23:52:00,
2013-02-05 19:02:00,72.0,62.0,30.04,SSE,167,6.0,11.0,71,0.00,,,0.00,,2013-02-06 00:02:00,
2013-02-05 19:12:00,72.0,62.0,30.04,SSE,167,6.0,11.0,71,0.00,,,0.00,,2013-02-06 00:12:00,
2013-02-05 19:22:00,71.0,61.0,30.04,SE,145,6.0,9.0,71,0.00,,,0.00,,2013-02-06 00:22:00,
2013-02-05 19:32:00,72.0,62.0,30.05,SE,141,6.0,10.0,72,0.00,,,0.00,,2013-02-06 00:32:00,
2013-02-05 19:42:00,72.0,62.0,30.05,SE,141,6.0,10.0,72,0.00,,,0.00,,2013-02-06 00:42:00,
2013-02-05 19:52:00,71.0,62.0,30.05,SSE,164,5.0,9.0,72,0.00,,,0.00,,2013-02-06 00:52:00,
2013-02-05 20:02:00,72.0,63.0,30.05,SE,145,5.0,11.0,73,0.00,,,0.00,,2013-02-06 01:02:00,
2013-02-05 20:12:00,72.0,63.0,30.05,SE,145,5.0,11.0,73,0.00,,,0.00,,2013-02-06 01:12:00,
2013-02-05 20:22:00,72.0,63.0,30.06,SE,139,7.0,11.0,73,0.00,,,0.00,,2013-02-06 01:22:00,
2013-02-05 20:32:00,72.0,63.0,30.06,SE,146,5.0,11.0,73,0.00,,,0.00,,2013-02-06 01:32:00,
2013-02-05 20:42:00,72.0,63.0,30.06,SE,146,5.0,11.0,73,0.00,,,0.00,,2013-02-06 01:42:00,
2013-02-05 20:52:00,72.0,63.0,30.06,SE,146,5.0,11.0,73,0.00,,,0.00,,2013-02-06 01:52:00,
2013-02-05 21:02:00,72.0,64.0,30.06,South,169,7.0,11.0,75,0.00,,,0.00,,2013-02-06 02:02:00,
2013-02-05 21:12:00,72.0,64.0,30.06,South,169,7.0,11.0,75,0.00,,,0.00,,2013-02-06 02:12:00,
2013-02-05 21:22:00,72.0,64.0,30.06,SSW,194,7.0,10.0,75,0.00,,,0.00,,2013-02-06 02:22:00,
2013-02-05 21:32:00,72.0,64.0,30.06,SE,144,8.0,11.0,76,0.00,,,0.00,,2013-02-06 02:32:00,
2013-02-05 21:42:00,72.0,64.0,30.06,SE,144,8.0,11.0,76,0.00,,,0.00,,2013-02-06 02:42:00,
2013-02-05 21:52:00,72.0,64.0,30.06,SSE,154,7.0,11.0,75,0.00,,,0.00,,2013-02-06 02:52:00,
2013-02-05 22:03:00,72.0,64.0,30.07,SE,143,7.0,10.0,75,0.00,,,0.00,,2013-02-06 03:03:00,
2013-02-05 22:12:00,72.0,64.0,30.07,SE,143,7.0,10.0,75,0.00,,,0.00,,2013-02-06 03:12:00,
2013-02-05 22:22:00,72.0,64.0,30.07,SSE,150,6.0,10.0,76,0.00,,,0.00,,2013-02-06 03:22:00,
2013-02-05 22:32:00,72.0,64.0,30.07,SSE,167,6.0,9.0,75,0.00,,,0.00,,2013-02-06 03:32:00,
2013-02-05 22:42:00,72.0,64.0,30.07,SSE,167,6.0,9.0,75,0.00,,,0.00,,2013-02-06 03:42:00,
2013-02-05 22:52:00,71.0,63.0,30.08,SE,139,4.0,8.0,77,0.00,,,0.00,,2013-02-06 03:52:00,
2013-02-05 23:02:00,71.0,63.0,30.08,SSE,155,5.0,9.0,77,0.00,,,0.00,,2013-02-06 04:02:00,
2013-02-05 23:11:00,71.0,63.0,30.08,SSE,155,5.0,9.0,77,0.00,,,0.00,,2013-02-06 04:11:00,
2013-02-05 23:22:00,71.0,63.0,30.08,SSE,159,5.0,9.0,77,0.00,,,0.00,,2013-02-06 04:22:00,
2013-02-05 23:32:00,71.0,63.0,30.08,SSE,149,4.0,8.0,77,0.00,,,0.00,,2013-02-06 04:32:00,
2013-02-05 23:42:00,71.0,63.0,30.08,SSE,149,4.0,8.0,77,0.00,,,0.00,,2013-02-06 04:42:00,
2013-02-05 23:52:00,71.0,63.0,30.08,South,169,6.0,10.0,77,0.00,,,0.00,,2013-02-06 04:52:00,